Location: Skalnate Pleso
(49.1889°N, 20.2450°E)
Time: 07:00:39
(UTC+01:00)

Cosmos 1707 Rocket - Pass Details

Date: 19 November 2019
Orbit: 606 x 631 km, 82.5° (Epoch: 08 December)

Event Time Altitude Azimuth Distance (km) Brightness Sun altitude
Rises 05:59:28 0° 351° (N) 2,934 6.7 -9.0°
Reaches altitude 10° 06:01:43 10° 352° (N) 2,023 5.9 -8.7°
Maximum altitude 06:06:13 79° 80° (E) 649 3.8 -8.0°
Drops below altitude 10° 06:10:41 10° 167° (SSE) 2,006 6.7 -7.3°
Sets 06:12:54 0° 169° (S) 2,907 7.5 -7.0°
